| time (UTC) | temp F | wind direction | speed MPH | gust MPH | rain 1hr in | rain 24hr in | rain mn in | humidity % | barometer mb |
| 20260906121545 | 70 | 0 | 0.0 | 2.0 | 0.00 | 0.14 | 0.00 | 95 | 1014.3 |
| 20260906120047 | 70 | 46 | 0.0 | 3.0 | 0.00 | 0.14 | 0.00 | 95 | 1014.1 |
| 20260906114548 | 70 | 0 | 0.0 | 2.0 | 0.00 | 0.40 | 0.00 | 96 | 1013.8 |
| 20260906113045 | 70 | 0 | 0.0 | 2.0 | 0.00 | 0.40 | 0.00 | 95 | 1013.6 |
| 20260906111542 | 70 | 0 | 0.0 | 1.0 | 0.00 | 0.40 | 0.00 | 95 | 1013.4 |
| 20260906110040 | 70 | 0 | 0.0 | 2.0 | 0.00 | 0.40 | 0.00 | 95 | 1013.2 |
| 20260906104556 | 70 | 0 | 0.0 | 0.0 | 0.00 | 0.40 | 0.00 | 95 | 1012.9 |
| 20260906103044 | 70 | 0 | 0.0 | 0.0 | 0.00 | 0.40 | 0.00 | 95 | 1012.9 |
| 20260906101547 | 70 | 0 | 0.0 | 0.0 | 0.00 | 0.40 | 0.00 | 95 | 1012.8 |
| 20260906100040 | 70 | 0 | 0.0 | 0.0 | 0.00 | 0.40 | 0.00 | 95 | 1012.6 |
| 20260906094558 | 70 | 0 | 0.0 | 0.0 | 0.00 | 0.40 | 0.00 | 95 | 1012.7 |
| 20260906093108 | 70 | 0 | 0.0 | 2.0 | 0.00 | 0.40 | 0.00 | 95 | 1012.8 |
| 20260906091543 | 70 | 0 | 0.0 | 1.0 | 0.00 | 0.40 | 0.00 | 95 | 1012.8 |
| 20260906090043 | 69 | 0 | 0.0 | 0.0 | 0.00 | 0.40 | 0.00 | 95 | 1012.9 |
| 20260906084541 | 69 | 0 | 0.0 | 0.0 | 0.00 | 0.40 | 0.00 | 95 | 1012.9 |
| 20260906083049 | 69 | 0 | 0.0 | 0.0 | 0.00 | 0.40 | 0.00 | 95 | 1012.8 |
| 20260906081545 | 69 | 0 | 0.0 | 0.0 | 0.00 | 0.40 | 0.00 | 94 | 1012.7 |
| 20260906080044 | 69 | 0 | 0.0 | 0.0 | 0.00 | 0.40 | 0.00 | 94 | 1012.7 |
| 20260906074541 | 70 | 0 | 0.0 | 0.0 | 0.00 | 0.40 | 0.00 | 94 | 1012.5 |
| 20260906073046 | 70 | 0 | 0.0 | 0.0 | 0.00 | 0.40 | 0.00 | 94 | 1012.8 |
| 20260906071546 | 70 | 0 | 0.0 | 0.0 | 0.00 | 0.40 | 0.00 | 94 | 1012.7 |
| 20260906070041 | 70 | 0 | 0.0 | 0.0 | 0.00 | 0.40 | 0.00 | 94 | 1012.5 |
| 20260906064544 | 70 | 0 | 0.0 | 0.0 | 0.00 | 0.40 | 0.00 | 94 | 1012.7 |
| 20260906063042 | 70 | 0 | 0.0 | 0.0 | 0.00 | 0.40 | 0.00 | 94 | 1012.8 |
| 20260906061540 | 70 | 0 | 0.0 | 0.0 | 0.00 | 0.40 | 0.00 | 94 | 1012.7 |
| 20260906060047 | 70 | 0 | 0.0 | 0.0 | 0.00 | 0.40 | 0.00 | 94 | 1012.8 |
| 20260906054548 | 70 | 0 | 0.0 | 0.0 | 0.00 | 0.40 | 0.00 | 93 | 1012.7 |
| 20260906053041 | 70 | 0 | 0.0 | 0.0 | 0.00 | 0.40 | 0.00 | 93 | 1012.7 |
| 20260906051555 | 70 | 0 | 0.0 | 0.0 | 0.00 | 0.40 | 0.00 | 93 | 1012.7 |
| 20260906050047 | 70 | 0 | 0.0 | 0.0 | 0.00 | 0.40 | 0.00 | 93 | 1012.6 |
| 20260906044542 | 70 | 0 | 0.0 | 0.0 | 0.00 | 0.40 | 0.00 | 93 | 1012.5 |
| 20260906043041 | 70 | 0 | 0.0 | 0.0 | 0.00 | 0.40 | 0.00 | 92 | 1012.5 |
| 20260906041544 | 70 | 0 | 0.0 | 0.0 | 0.00 | 0.40 | 0.00 | 92 | 1012.4 |
| 20260906040047 | 71 | 0 | 0.0 | 0.0 | 0.00 | 0.40 | 0.00 | 92 | 1012.5 |
| 20260906034541 | 71 | 0 | 0.0 | 0.0 | 0.00 | 0.40 | 0.40 | 92 | 1012.4 |
| 20260906033048 | 71 | 0 | 0.0 | 0.0 | 0.00 | 0.40 | 0.40 | 92 | 1012.7 |
| 20260906031541 | 71 | 0 | 0.0 | 2.0 | 0.00 | 0.40 | 0.40 | 92 | 1012.9 |
| 20260906030044 | 71 | 0 | 0.0 | 0.0 | 0.00 | 0.40 | 0.40 | 91 | 1013.1 |
| 20260906024550 | 72 | 0 | 0.0 | 2.0 | 0.00 | 0.40 | 0.40 | 91 | 1013.2 |
| 20260906023041 | 72 | 261 | 1.0 | 3.0 | 0.00 | 0.40 | 0.40 | 90 | 1013.0 |
| 20260906021540 | 72 | 0 | 0.0 | 0.0 | 0.00 | 0.40 | 0.40 | 90 | 1012.9 |
| 20260906020046 | 72 | 0 | 0.0 | 0.0 | 0.00 | 0.40 | 0.40 | 90 | 1012.9 |
| 20260906014613 | 72 | 0 | 0.0 | 0.0 | 0.00 | 0.40 | 0.40 | 89 | 1012.8 |
| 20260906013047 | 73 | 0 | 0.0 | 0.0 | 0.00 | 0.40 | 0.40 | 89 | 1012.6 |
| 20260906011540 | 73 | 0 | 0.0 | 0.0 | 0.00 | 0.40 | 0.40 | 89 | 1012.4 |
| 20260906010050 | 73 | 0 | 0.0 | 0.0 | 0.00 | 0.40 | 0.40 | 88 | 1012.1 |
| 20260906004544 | 74 | 0 | 0.0 | 0.0 | 0.00 | 0.40 | 0.40 | 88 | 1011.9 |
| 20260906003047 | 74 | 0 | 0.0 | 0.0 | 0.00 | 0.40 | 0.40 | 87 | 1011.7 |
| 20260906001544 | 75 | 0 | 0.0 | 0.0 | 0.00 | 0.40 | 0.40 | 87 | 1011.9 |
| 20260906000046 | 75 | 0 | 0.0 | 0.0 | 0.00 | 0.40 | 0.40 | 86 | 1012.0 |
| 20260905234544 | 76 | 0 | 0.0 | 0.0 | 0.00 | 0.40 | 0.40 | 86 | 1012.1 |
| 20260905233048 | 76 | 0 | 0.0 | 0.0 | 0.00 | 0.40 | 0.40 | 84 | 1012.0 |
| 20260905231544 | 77 | 0 | 0.0 | 0.0 | 0.00 | 0.40 | 0.40 | 83 | 1012.0 |
| 20260905230042 | 78 | 0 | 0.0 | 0.0 | 0.00 | 0.40 | 0.40 | 80 | 1012.0 |
| 20260905224540 | 80 | 0 | 0.0 | 0.0 | 0.00 | 0.40 | 0.40 | 79 | 1011.9 |
| 20260905223044 | 81 | 0 | 0.0 | 0.0 | 0.00 | 0.40 | 0.40 | 79 | 1012.0 |
| 20260905221604 | 82 | 0 | 0.0 | 0.0 | 0.00 | 0.40 | 0.40 | 75 | 1012.2 |
| 20260905220046 | 83 | 0 | 0.0 | 0.0 | 0.00 | 0.40 | 0.40 | 75 | 1012.2 |
| 20260905214544 | 83 | 0 | 0.0 | 0.0 | 0.00 | 0.40 | 0.40 | 72 | 1012.1 |
| 20260905213057 | 83 | 95 | 0.0 | 2.0 | 0.00 | 0.40 | 0.40 | 69 | 1011.8 |
| 20260905211545 | 84 | 0 | 0.0 | 2.0 | 0.00 | 0.40 | 0.40 | 71 | 1011.7 |
| 20260905210052 | 84 | 0 | 0.0 | 4.0 | 0.00 | 0.40 | 0.40 | 68 | 1011.6 |
| 20260905204547 | 84 | 0 | 0.0 | 3.0 | 0.00 | 0.40 | 0.40 | 69 | 1011.9 |
| 20260905203044 | 83 | 211 | 0.0 | 3.0 | 0.00 | 0.40 | 0.40 | 68 | 1011.8 |
| 20260905201553 | 83 | 292 | 0.0 | 3.0 | 0.00 | 0.40 | 0.40 | 68 | 1011.9 |
| 20260905200046 | 83 | 0 | 0.0 | 4.0 | 0.00 | 0.40 | 0.40 | 67 | 1012.0 |
| 20260905194549 | 84 | 13 | 0.0 | 5.0 | 0.00 | 0.42 | 0.40 | 65 | 1012.2 |
| 20260905193051 | 83 | 252 | 1.0 | 5.0 | 0.00 | 0.42 | 0.40 | 68 | 1012.3 |
| 20260905191546 | 82 | 191 | 1.0 | 5.0 | 0.00 | 0.42 | 0.40 | 69 | 1012.6 |
| 20260905190044 | 83 | 184 | 1.0 | 5.0 | 0.00 | 0.42 | 0.40 | 68 | 1012.8 |
| 20260905184552 | 83 | 287 | 2.0 | 5.0 | 0.00 | 0.42 | 0.40 | 69 | 1013.0 |
| 20260905183046 | 83 | 200 | 1.0 | 5.0 | 0.00 | 0.42 | 0.40 | 70 | 1013.2 |
| 20260905181603 | 83 | 211 | 2.0 | 5.0 | 0.00 | 0.42 | 0.40 | 70 | 1013.2 |
| 20260905180043 | 82 | 254 | 1.0 | 4.0 | 0.00 | 0.42 | 0.40 | 71 | 1013.4 |
| 20260905174543 | 82 | 155 | 1.0 | 6.0 | 0.00 | 0.42 | 0.40 | 72 | 1013.4 |
| 20260905173043 | 82 | 168 | 1.0 | 4.0 | 0.00 | 0.42 | 0.40 | 73 | 1013.3 |
| 20260905171545 | 81 | 0 | 1.0 | 4.0 | 0.00 | 0.42 | 0.40 | 76 | 1013.4 |
| 20260905170039 | 81 | 163 | 0.0 | 4.0 | 0.00 | 0.42 | 0.40 | 76 | 1013.7 |
| 20260905164546 | 80 | 194 | 1.0 | 4.0 | 0.01 | 0.42 | 0.40 | 77 | 1014.2 |
| 20260905163045 | 80 | 223 | 0.0 | 3.0 | 0.01 | 0.42 | 0.40 | 77 | 1014.7 |
| 20260905161557 | 80 | 304 | 1.0 | 2.0 | 0.01 | 0.42 | 0.40 | 84 | 1014.6 |
| 20260905160048 | 79 | 0 | 0.0 | 3.0 | 0.01 | 0.42 | 0.40 | 90 | 1014.5 |
| 20260905154543 | 76 | 5 | 0.0 | 3.0 | 0.00 | 0.41 | 0.39 | 96 | 1014.7 |
| 20260905153044 | 74 | 0 | 0.0 | 0.0 | 0.00 | 0.41 | 0.39 | 96 | 1014.8 |
| 20260905151545 | 73 | 0 | 0.0 | 2.0 | 0.00 | 0.41 | 0.39 | 96 | 1014.6 |
| 20260905150045 | 73 | 0 | 0.0 | 2.0 | 0.00 | 0.41 | 0.39 | 96 | 1014.6 |
| 20260905144545 | 72 | 0 | 0.0 | 4.0 | 0.00 | 0.41 | 0.39 | 96 | 1013.4 |
| 20260905143045 | 72 | 225 | 2.0 | 5.0 | 0.00 | 0.41 | 0.39 | 96 | 1012.8 |
| 20260905141541 | 72 | 180 | 1.0 | 5.0 | 0.00 | 0.41 | 0.39 | 96 | 1013.5 |
| 20260905140045 | 71 | 0 | 1.0 | 6.0 | 0.01 | 0.41 | 0.39 | 96 | 1013.4 |
| 20260905134547 | 71 | 232 | 2.0 | 5.0 | 0.01 | 0.41 | 0.39 | 96 | 1013.6 |
| 20260905133041 | 71 | 0 | 0.0 | 2.0 | 0.01 | 0.41 | 0.39 | 96 | 1014.4 |
| 20260905131544 | 71 | 0 | 0.0 | 1.0 | 0.01 | 0.41 | 0.39 | 96 | 1014.0 |
| 20260905130042 | 70 | 0 | 0.0 | 1.0 | 0.12 | 0.40 | 0.38 | 96 | 1014.6 |
| 20260905124541 | 70 | 0 | 0.0 | 0.0 | 0.27 | 0.40 | 0.38 | 96 | 1014.7 |
| 20260905123045 | 70 | 0 | 0.0 | 2.0 | 0.34 | 0.40 | 0.38 | 96 | 1014.6 |